Voltar ao catálogo

COSMOS 394

AtivoMilitarVLEO
NORAD 4922·PAYLOAD·🇷🇺 Russia

Lançado Feb 9, 1971 de Plesetsk Cosmodrome

Loading…

Próximas Passagens (próximas 24 horas)

TLE

AtualizadoSource: Space-Track

Época: Sep 14, 2026, 11:56 UTC

1 04922U 71010A   26257.49760559  .00004291  00000-0  82317-4 0  9994
2 04922  65.8209 342.5066 0006446 231.2443 128.8132 15.49398594 71857

Acompanhe COSMOS 394 em tempo real com AllMySat

Download on the App Store